EHI
0 0 0 0 0 0 0 0 0 0 0 0 0 0 0 2 4 4 2 1 0 0 0 1 2 2 4 7 10 10 7 5 4 3 2 0 0 0 0 0 0 0 0
0 0 0 0 0 0 0 0 0 0 0 0 0 0 0 2 2 2 1 0 0 0 1 1 2 3 6 9 11 11 9 6 4 4 2 1 0 1 1 0 0 0 0
0 0 0 0 0 0 0 0 0 0 0 0 0 0 0 1 1 0 0 0 0 0 1 1 2 5 9 11 12 12 11 8 5 3 2 1 1 2 2 1 0 0 0
0 0 0 0 0 0 0 0 0 0 0 0 0 0 0 0 0 0 0 0 0 0 0 1 3 5 7 9 11 12 11 8 4 1 1 0 1 2 2 2 1 0 0
0 0 0 0 0 0 0 0 0 0 0 0 0 0 0 0 0 0 0 0 0 0 0 1 2 3 4 5 8 10 9 5 2 0 0 0 0 1 1 1 1 0 0
0 0 0 0 0 0 0 0 0 0 0 0 0 0 0 0 0 0 0 0 0 0 0 0 1 1 1 2 4 5 5 3 1 0 0 0 0 1 1 1 0 0 0
0 0 0 0 0 0 0 0 0 0 0 0 0 0 0 0 0 0 0 0 0 0 0 0 0 0 1 2 1 2 2 1 0 0 0 0 0 1 1 1 0 0 0
0 0 0 0 0 0 1 1 0 0 0 0 0 0 0 0 0 0 0 0 0 0 0 0 0 0 1 1 1 0 1 1 0 0 0 0 0 0 1 1 0 0 0
0 0 0 0 0 1 2 2 1 0 0 0 0 0 0 0 0 0 0 0 0 0 0 0 0 0 0 0 0 0 0 1 0 0 0 0 0 0 0 0 0 0 0
0 0 0 0 0 1 2 2 2 1 0 0 0 0 0 0 0 0 0 0 0 0 0 0 0 0 0 0 0 0 0 0 0 0 0 0 0 0 0 0 0 0 0
0 0 0 0 0 0 1 1 1 1 0 0 0 0 0 0 0 0 0 0 0 0 0 0 0 0 0 0 0 0 0 0 0 0 0 0 0 0 0 0 0 0 0
0 0 0 0 0 0 0 0 0 0 0 0 0 0 0 0 0 0 0 0 0 0 0 0 0 0 0 0 0 0 0 0 0 0 0 0 0 0 0 0 0 0 0
0 0 0 0 0 0 0 0 0 0 0 0 0 0 0 0 0 0 0 0 0 0 0 0 0 0 0 0 0 0 0 0 0 0 0 0 0 0 0 0 0 0 0
0 0 0 0 0 0 0 0 0 0 0 0 0 0 0 0 0 0 0 0 0 0 0 0 0 0 0 0 0 0 0 0 0 0 0 0 0 0 0 0 0 0 0
0 0 0 0 0 0 0 0 0 0 0 0 0 0 0 0 0 0 0 0 0 0 0 0 0 0 0 0 0 0 0 0 0 0 0 0 0 0 0 0 0 0 0
0 0 0 0 0 0 0 0 0 0 0 0 0 0 0 0 0 0 0 0 0 0 0 0 0 0 0 0 0 0 0 0 0 0 0 0 0 0 0 0 0 0 0
0 0 0 0 0 0 0 1 1 1 1 0 0 0 0 0 0 0 0 0 0 0 0 0 0 0 0 0 0 0 0 0 0 0 0 0 0 0 0 0 0 0 0
0 0 0 0 0 0 0 1 2 1 1 0 0 0 0 0 0 0 0 0 0 0 0 0 0 0 0 0 0 0 0 0 0 0 0 0 0 0 0 0 0 0 0
0 0 0 0 0 0 0 1 3 2 1 0 0 0 0 0 0 0 0 0 0 0 0 0 0 0 0 0 0 0 0 0 0 0 0 0 0 0 0 0 0 0 0
0 0 0 0 0 0 0 1 3 3 2 1 0 0 1 0 0 0 0 0 0 0 0 0 0 0 0 0 0 0 0 0 0 0 0 0 0 0 0 0 0 0 0
0 0 0 0 0 0 0 0 1 2 1 1 1 1 1 0 0 0 0 0 0 0 0 0 0 0 0 0 0 0 0 0 0 0 0 0 0 0 0 0 0 0 0
0 0 0 0 0 0 0 0 0 0 0 1 3 3 1 0 0 0 0 0 0 0 0 0 0 0 0 0 0 0 0 0 0 0 0 0 0 0 0 0 0 0 0
0 0 0 0 0 0 0 0 0 0 0 1 4 5 3 1 0 0 0 0 0 0 0 0 0 0 0 0 0 0 0 0 0 0 0 0 0 0 0 0 0 0 0
0 0 0 0 0 0 0 0 0 0 0 1 3 4 4 2 0 0 0 0 0 0 0 0 0 0 0 0 0 0 0 0 0 0 0 0 0 0 0 0 0 0 0
0 0 0 0 0 0 0 0 0 0 0 0 1 1 1 1 0 0 0 0 0 0 0 0 0 0 0 0 0 0 0 0 0 0 0 0 0 0 0 0 0 0 0
0 0 0 0 0 0 0 0 0 0 0 0 0 0 0 0 0 0 0 0 0 0 0 0 0 0 0 0 0 0 0 0 0 0 0 0 0 0 0 0 0 0 0
Wind_Speed
4 5 9 10 11 11 11 11 12 12 13 13 13 13 13 13 12 12 11 10 9 8 8 7 8 8 9 9 10 9 9 10 10 10 10 10 10 10 10 9 8 5 9
8 7 11 11 11 11 11 11 11 11 11 12 12 12 12 12 11 11 10 10 9 8 8 7 7 8 9 8 9 9 9 9 10 10 10 9 10 10 10 10 9 5 8
10 7 9 12 12 11 10 10 10 10 10 11 11 11 11 11 10 10 9 9 9 8 8 7 7 8 8 8 8 8 8 8 9 10 8 4 5 10 10 10 10 9 8
10 7 8 13 12 11 11 10 10 10 9 9 10 10 10 9 9 9 9 8 8 8 7 7 7 7 7 7 7 7 7 7 8 8 4 3 4 9 10 10 10 9 8
9 7 8 14 12 11 11 10 10 9 9 9 9 9 9 8 8 8 8 7 7 7 6 6 6 6 6 6 6 6 7 7 8 6 4 3 3 8 9 9 9 9 8
8 7 8 14 13 12 11 10 10 9 9 9 8 8 8 8 7 7 7 7 7 6 5 5 4 5 5 5 5 6 6 7 7 4 3 2 2 6 8 8 8 8 8
8 6 7 14 13 12 11 10 10 10 9 9 8 8 7 7 7 6 6 6 6 5 5 4 3 4 4 4 4 5 5 6 5 3 3 2 2 6 7 7 7 7 7
9 7 7 14 13 12 12 11 11 10 10 9 8 7 7 6 6 5 5 5 4 4 3 3 3 3 3 3 3 4 4 4 5 3 2 1 2 5 6 6 6 6 6
7 6 5 7 9 12 12 12 12 11 10 9 8 7 7 6 5 5 4 4 3 3 2 3 3 3 4 4 3 3 3 4 4 2 2 1 1 4 5 5 5 5 6
5 5 5 5 5 5 7 12 12 12 11 10 9 8 7 6 6 5 4 3 2 2 1 2 3 3 4 4 4 4 4 4 2 2 1 0 1 3 4 5 5 5 5
6 4 4 5 5 5 5 8 10 12 11 10 8 9 7 2 2 2 3 4 3 2 0 1 2 3 5 6 5 4 4 2 1 1 0 1 2 3 4 4 4 5 5
8 7 5 5 5 4 5 4 3 4 5 5 4 4 3 3 2 3 3 5 5 3 2 1 2 4 4 3 4 4 1 1 1 0 1 1 2 3 3 4 4 4 4
6 7 7 6 5 5 4 3 2 2 3 4 5 5 3 3 2 2 1 2 2 2 1 2 3 2 1 1 1 1 0 0 1 1 1 1 2 2 3 3 3 3 3
3 5 6 7 6 6 5 3 3 3 3 3 4 5 4 3 3 2 2 2 1 1 1 1 0 1 1 1 1 1 1 1 1 1 1 2 2 3 3 3 2 2 2
4 4 4 5 7 6 5 4 4 5 5 4 4 5 5 4 4 3 2 2 3 2 2 2 1 2 2 2 2 3 3 3 2 2 1 3 3 3 3 3 3 2 1
8 6 4 3 6 7 6 6 5 5 5 4 5 6 7 5 4 4 3 3 3 3 3 2 2 2 2 1 2 3 4 3 3 2 1 2 3 3 4 4 3 3 2
10 8 7 4 3 5 7 7 6 5 5 5 6 6 7 6 6 5 4 4 4 3 3 2 2 1 1 1 1 2 2 3 3 3 2 1 1 3 4 4 4 4 3
10 10 9 7 5 3 4 6 5 5 5 5 6 6 8 9 7 5 4 4 4 3 3 3 2 1 1 1 1 1 1 2 3 3 2 2 2 1 2 3 3 3 3
10 10 10 9 8 6 4 5 5 4 5 5 6 6 7 8 8 7 6 5 4 3 3 3 2 2 2 2 2 1 1 2 2 3 3 3 3 2 2 2 3 2 2
9 8 9 9 8 7 4 3 3 4 4 5 5 6 7 7 8 7 5 5 4 3 3 3 3 2 2 3 2 1 1 1 2 3 4 3 3 3 3 2 1 2 3
9 9 8 9 8 7 4 3 2 3 4 4 5 6 7 7 7 7 5 5 5 5 5 5 3 3 2 2 3 1 1 1 2 3 3 3 4 4 4 3 2 2 1
9 9 8 8 8 7 5 4 3 3 4 4 4 6 7 8 8 7 7 5 5 4 4 5 4 3 2 3 3 2 1 2 2 1 2 3 4 3 4 5 4 4 3
10 9 8 9 8 7 7 5 4 3 2 2 4 5 6 8 8 8 8 7 6 6 5 6 5 6 4 2 2 4 4 4 2 2 2 2 2 3 3 3 5 5 4
10 9 8 8 8 7 6 5 5 4 4 4 3 3 5 6 7 8 8 8 7 6 6 6 6 4 5 3 2 1 2 3 2 1 2 1 1 3 3 4 4 5 5
10 9 8 8 7 7 6 6 5 4 4 4 3 3 4 4 5 6 7 7 7 6 7 7 6 5 4 4 3 3 2 1 2 2 2 2 1 1 2 4 4 4 5
9 8 8 8 7 7 6 6 6 6 5 4 3 3 2 2 3 4 5 6 6 6 6 6 6 6 4 4 3 3 3 3 3 3 3 2 2 2 2 2 3 4 4
Wind_Direction
172 172 166 148 141 135 130 125 121 119 118 118 118 119 119 120 120 120 119 118 119 122 123 124 123 119 118 116 111 109 105 100 95 91 86 83 86 95 96 97 94 86 88
151 160 160 150 145 141 135 131 127 123 121 120 121 120 120 119 119 120 120 120 119 119 118 117 119 117 116 114 111 109 107 103 97 89 81 77 87 93 93 92 95 96 91
143 152 155 153 150 147 143 138 133 127 125 123 122 121 120 119 120 120 120 121 121 121 120 119 118 119 117 114 111 106 104 103 100 95 83 59 79 91 92 91 92 92 91
144 146 152 156 154 153 151 147 141 136 132 128 125 123 122 121 121 121 121 121 120 119 120 120 122 123 120 116 109 103 102 104 104 102 82 61 73 90 89 89 89 90 89
145 143 159 158 158 158 158 154 149 144 140 136 133 130 127 124 123 122 121 121 120 118 117 116 119 123 120 113 108 103 102 106 107 103 91 72 69 95 92 88 87 87 87
144 145 163 161 162 164 164 161 157 154 150 147 143 139 134 130 126 121 119 118 117 115 113 112 115 119 117 112 107 101 100 105 102 100 95 86 79 99 95 91 87 84 84
147 151 167 166 168 169 169 169 167 164 160 157 154 149 146 140 133 126 120 115 113 110 106 101 105 113 111 106 104 100 99 110 109 105 97 84 99 106 97 92 90 86 85
154 157 168 173 174 175 176 178 176 173 170 168 165 163 160 154 146 138 130 123 115 104 93 85 82 93 96 91 91 94 95 110 117 107 98 74 111 105 99 95 94 90 85
159 161 172 176 179 182 183 185 183 179 178 177 177 178 175 169 164 159 151 142 131 111 87 75 71 71 74 71 69 72 84 102 117 123 115 87 110 109 106 100 100 93 86
166 175 179 180 179 183 187 191 189 186 185 186 187 190 190 188 186 185 178 175 169 152 98 64 56 54 53 51 53 61 71 89 115 114 97 184 141 117 113 108 104 99 91
189 197 192 191 189 186 189 200 195 192 192 193 195 199 195 188 188 197 201 208 217 217 227 26 34 36 45 39 37 55 64 63 104 103 110 219 144 126 117 113 107 105 101
201 203 202 201 199 193 201 201 194 191 189 189 184 192 171 165 189 204 227 229 232 239 263 310 355 25 48 40 26 41 47 64 108 204 251 233 157 138 129 122 116 114 112
212 210 206 204 203 200 208 197 192 188 182 184 184 182 173 173 191 205 202 257 273 281 4 8 18 30 40 40 22 20 351 184 202 251 302 270 194 162 140 131 121 121 122
267 234 222 206 207 209 209 208 197 195 193 193 190 183 176 181 196 204 206 215 220 206 216 235 264 297 291 249 239 245 245 220 202 209 290 275 222 199 174 159 149 134 124
349 312 266 218 211 210 210 216 208 206 206 201 193 193 188 192 202 206 213 211 211 202 209 226 241 266 271 258 238 225 224 214 204 195 270 269 234 230 216 192 180 177 169
356 342 322 255 223 211 212 216 217 211 208 199 200 201 198 201 203 205 214 213 211 203 205 211 230 255 270 261 245 220 213 201 199 192 208 274 251 241 247 231 209 204 211
356 349 338 312 269 229 220 222 223 213 205 206 209 204 203 204 205 206 211 217 214 194 191 199 221 235 253 228 218 202 194 192 189 196 204 233 265 252 250 252 248 227 225
359 355 349 341 333 290 251 235 230 216 207 211 211 207 207 207 205 202 210 223 211 180 176 186 193 204 218 188 172 186 183 182 194 201 207 226 240 256 262 260 266 245 236
355 353 349 347 345 328 290 256 239 231 221 218 211 207 208 208 206 202 210 219 203 185 183 193 176 173 183 182 174 178 216 196 195 208 216 223 228 232 239 267 256 238 244
347 348 347 345 344 339 321 279 245 233 233 232 219 209 202 206 208 205 210 214 196 190 188 183 172 164 172 165 151 134 222 226 206 216 221 220 223 225 221 231 241 252 247
344 346 342 344 342 343 336 317 278 247 235 233 227 213 202 199 200 200 208 201 189 194 194 179 159 159 154 135 114 86 328 264 227 231 223 223 226 222 214 216 212 211 241
341 342 339 338 334 336 326 307 280 269 251 233 226 217 209 201 198 204 201 196 189 189 183 172 158 152 158 153 144 131 307 321 289 236 229 227 229 212 219 219 209 211 211
337 337 335 330 326 327 326 314 301 281 271 247 226 219 217 210 199 198 197 190 185 182 186 182 176 164 167 170 158 149 162 219 273 298 263 242 228 214 224 217 216 215 212
330 329 327 324 321 324 327 324 315 297 278 266 256 236 225 214 201 195 188 181 180 181 182 185 182 176 157 166 172 162 155 157 162 284 308 294 249 224 228 227 225 219 211
325 326 326 324 322 323 326 324 315 304 287 282 272 247 236 216 199 190 184 178 179 179 178 177 174 180 174 169 170 165 156 149 153 165 246 293 315 266 236 230 229 224 215
326 328 331 330 326 329 331 334 330 322 311 299 283 257 236 207 189 185 182 183 181 174 175 177 174 179 186 182 181 176 169 169 183 177 200 226 254 281 277 247 234 232 222